#timestamp,LO_Frequency,Hit,StdDev 
1511107215.2,286047000.1,P
1511107235.1,286047001.7,N
1511107236.0,286047001.7,N
1511107255.8,286047002.1,N
1511107275.7,286047002.6,N
1511107295.5,286047001.3,N
1511107315.4,286047005.5,Y
1511107335.2,286047002.0,P
1511107355.0,286046999.8,N
1511107355.9,286046999.8,N
1511107375.8,286046999.9,N
1511107395.6,286046999.0,N
1511107415.4,286046999.6,N
1511107435.3,286046999.0,N
1511107455.1,286046999.1,N
1511107475.9,286046996.9,Y
1511107495.7,286046996.9,P
1511107515.5,286046997.5,N
1511107535.4,286046997.1,N
1511107555.2,286046996.8,N
1511107575.1,286046997.6,N
1511107576.0,286046997.6,N
1511107595.8,286046995.1,Y
1511107615.6,286046996.9,P
1511107635.5,286046999.2,N
1511107655.3,286046998.2,N
1511107675.2,286046998.3,N
1511107695.9,286046999.0,N
1511107715.7,286046996.7,Y
1511107735.6,286047002.4,P
1511107755.4,286047002.1,N
1511107775.2,286046999.8,N
1511107795.1,286047002.2,N
1511107796.0,286047002.2,N
1511107815.8,286047003.9,N
1511107835.7,286047003.8,N
1511107855.5,286047001.5,N
1511107875.3,286047001.9,N
1511107895.2,286046999.8,N
1511107915.0,286047000.2,N
1511107915.9,286047000.2,N
1511107935.8,286046999.8,N
1511107955.6,286047002.0,N
1511107975.4,286047002.8,N
1511107995.3,286047002.8,N
1511108015.1,286047001.8,N
1511108035.9,286047002.6,N
1511108055.7,286047004.4,N
1511108075.5,286047003.0,N
1511108095.4,286047004.6,N
1511108115.2,286047004.8,N
1511108135.0,286047003.5,N
1511108135.9,286047003.5,N
1511108155.8,286047005.9,Y
1511108175.6,286047004.4,P
1511108195.5,286047002.2,N
1511108215.3,286047001.7,N
1511108235.1,286047002.1,N
1511108255.9,286047001.9,N
1511108275.7,286047002.2,N
1511108295.6,286047001.6,N
1511108315.4,286047001.6,N
1511108335.2,286047002.4,N
1511108355.1,286047001.2,N
1511108356.0,286047001.2,N
1511108375.8,286046998.9,N
1511108395.6,286047000.2,N
1511108415.5,286047002.2,N
1511108435.3,286047002.5,N
1511108455.2,286046999.9,N
1511108475.0,286047000.1,N
1511108475.9,286047000.1,N
1511108495.7,286046999.8,N
1511108515.6,286047001.5,N
1511108535.4,286047002.3,N
1511108555.3,286047000.3,N
1511108575.1,286046999.8,N
1511108576.0,286046999.8,N
1511108595.8,286047000.2,N
1511108615.7,286047000.0,N
1511108635.5,286047000.9,N
1511108655.3,286047001.5,N
1511108675.2,286047002.1,N
1511108695.0,286047002.3,N
1511108695.9,286047002.3,N
1511108715.8,286047002.5,N
1511108735.6,286047003.9,Y
1511108755.4,286047000.5,P
1511108775.3,286047002.5,P
1511108795.1,286047002.7,P
1511108815.9,286047002.3,N
1511108835.7,286047001.6,N
1511108855.5,286047002.5,Y
1511108875.4,286047001.9,P
1511108895.2,286046999.8,P
1511108915.0,286047004.4,P
1511108915.9,286047004.4,N
1511108935.8,286047005.4,Y
1511108955.6,286046998.4,P
1511108975.5,286046996.5,N
1511108995.3,286046996.7,N
1511109015.1,286046997.7,N
1511109035.9,286046994.9,N
1511109055.7,286046993.7,N
1511109075.6,286046993.6,N
1511109095.4,286046996.2,N
1511109115.2,286046994.9,N
1511109135.1,286046997.1,N
1511109136.0,286046997.1,N
1511109155.8,286046999.1,N
1511109175.6,286046998.8,N
1511109195.5,286046999.9,N
1511109215.3,286046998.8,N
1511109235.2,286046998.5,N
1511109255.9,286046997.1,N
1511109275.7,286046995.0,N
1511109295.6,286046997.0,N
1511109315.4,286046996.7,N
1511109335.3,286046998.7,N
1511109355.1,286046996.5,N
1511109356.0,286046996.5,N
1511109375.8,286046997.1,N
1511109395.7,286046997.9,N
1511109415.5,286046995.6,N
1511109435.3,286046997.3,N
1511109455.2,286046997.3,N
1511109475.0,286046997.2,N
1511109475.9,286046997.2,N
1511109495.8,286046995.2,Y
1511109515.6,286047000.5,P
1511109535.4,286047001.0,N
1511109555.3,286047000.8,N
1511109575.1,286046999.0,N
1511109595.9,286046998.3,N
1511109615.7,286047001.1,N
1511109635.5,286047000.2,N
1511109655.4,286047000.5,N
1511109675.2,286047001.4,N
1511109695.1,286047004.3,Y
1511109696.0,286047004.3,P
1511109715.8,286047000.3,N
1511109735.6,286047000.5,N
1511109755.5,286047000.2,N
1511109775.3,286047002.1,N
1511109795.1,286047000.0,N
1511109815.9,286047000.4,N
1511109835.7,286047000.5,N
1511109855.6,286047000.6,N
1511109875.4,286047000.0,N
1511109895.2,286046999.9,N
1511109915.1,286047001.8,N
1511109916.0,286047001.8,N
1511109935.8,286047004.0,Y
1511109955.7,286047000.4,P
1511109975.5,286047000.0,N
1511109995.3,286047000.9,N
1511110015.2,286046998.6,Y
1511110035.0,286046999.6,P
1511110035.9,286046999.6,N
1511110055.8,286046996.5,P
1511110075.6,286046997.1,N
1511110095.4,286046997.6,N
1511110115.3,286046999.4,N
1511110135.1,286046999.2,N
1511110155.9,286046999.1,N
1511110175.7,286046997.3,N
1511110195.5,286046996.5,N
1511110215.4,286046999.4,N
1511110235.2,286046998.2,N
1511110255.0,286046998.8,N
1511110255.9,286046998.8,N
1511110275.8,286046999.4,N
1511110295.6,286046999.0,N
1511110315.5,286046998.2,N
1511110335.3,286046999.0,N
1511110355.1,286046998.4,N
1511110375.9,286046998.2,N
1511110395.7,286047000.7,N
1511110415.6,286047000.6,N
1511110435.4,286046998.9,N
1511110455.2,286046998.9,N
1511110475.1,286046999.6,N
1511110476.0,286046999.6,N
1511110495.8,286047001.1,N
1511110515.6,286046999.9,N
1511110535.5,286047001.0,N
1511110555.3,286046998.1,N
1511110575.2,286046998.5,N
1511110595.9,286047002.8,N
1511110615.7,286047000.1,N
1511110635.6,286046998.2,N
1511110655.4,286046996.9,N
1511110675.2,286046996.5,N
1511110695.1,286046996.6,N
1511110696.0,286046996.6,N
1511110715.8,286046996.7,N
1511110735.7,286046998.9,N
1511110755.5,286046998.3,N
1511110775.3,286046998.8,N
1511110795.2,286046999.4,N
